Torna al catalogo

STARLINK-37052

AttivoComunicazioniVLEO
NORAD 68179·PAYLOAD·🇺🇸 United States

Lanciato Mar 14, 2026 da Vandenberg Space Force Base

Loading…

Prossimi Passaggi (prossime 24 ore)

TLE

AggiornatoSource: CelesTrak SupGP

Epoca: Sep 15, 2026, 04:06 UTC

1 68179C 26050N   26258.17131944 -.00020189  00000+0 -59646-3 0  2589
2 68179  53.1572 102.4995 0001231  74.0014 222.1274 15.34401896    11

Traccia STARLINK-37052 in tempo reale con AllMySat

Download on the App Store